Weather History for Raton, NM

Change the Weather History Date:

Sunday, June 2, 2013

  Actual Average (KTAD) Record (KTAD)
Temperature  
Mean Temperature 64 °F 64 °F  
Max Temperature 84 °F 80 °F 97 °F (2008)
Min Temperature 45 °F 49 °F 35 °F (1949)
Degree Days  
Heating Degree Days 2 3  
Month to date heating degree days 6  
Since 1 June heating degree days 6  
Since 1 July heating degree days 5501  
Cooling Degree Days 0 2  
Month to date cooling degree days 4  
Year to date cooling degree days 32  
Since 1 June cooling degree days 4  
Growing Degree Days 14 (Base 50)    
Moisture  
Dew Point 36 °F    
Average Humidity 40    
Maximum Humidity 68    
Minimum Humidity 12    
Precipitation  
Precipitation 0.00 in 0.06 in 1.19 in (1986)
Month to date precipitation 0.11  
Year to date precipitation 4.63  
Sea Level Pressure  
Sea Level Pressure 29.93 in    
Wind  
Wind Speed 12 mph (SSW)    
Max Wind Speed 29 mph    
Max Gust Speed 40 mph    
Visibility 10 miles    
Events      
T = Trace of Precipitation, MM = Missing Value Source: NWS Daily Summary

Daily Weather History Graph

Daily Weather History Graph

Search for Another Location

Airport:

Trip Planner

Search our weather history database for the weather conditions in past years. The results will help you decide how hot, cold, wet, or windy it might be!

Date:

Astronomy

Jun. 02, 2013 Rise Set
Actual Time 5:40 AM MDT 8:12 PM MDT
Civil Twilight 5:10 AM MDT 8:42 PM MDT
Nautical Twilight 4:32 AM MDT 9:19 PM MDT
Astronomical Twilight 3:51 AM MDT 10:01 PM MDT
Moon 2:00 AM MDT (6/2) 2:52 PM MDT (6/2)
Length of Visible Light 15h 32m
Length of Day
14h 32m
Waning Crescent, 30% of the Moon is Illuminated
Jun 2
Waning Crescent
Jun 8
New
Jun 16
First Quarter
Jun 23
Full
Jun 29
Last Quarter

Hourly Weather History & Observations

Time (MDT) Temp. Windchill Dew Point Humidity Pressure Visibility Wind Dir Wind Speed Gust Speed Precip Events Conditions
12:53 AM 53.1 °F - 35.1 °F 50% 30.08 in 10.0 mi NE 6.9 mph - N/A   Clear
1:53 AM 46.9 °F - 34.0 °F 61% 30.09 in 10.0 mi NNW 4.6 mph - N/A   Clear
2:53 AM 48.0 °F - 34.0 °F 58% 30.08 in 10.0 mi WSW 9.2 mph - N/A   Clear
3:53 AM 46.9 °F - 35.1 °F 63% 30.08 in 10.0 mi WSW 8.1 mph - N/A   Clear
4:53 AM 45.0 °F 42.6 °F 35.1 °F 68% 30.08 in 10.0 mi SSE 4.6 mph - N/A   Clear
5:53 AM 45.0 °F - 35.1 °F 68% 30.09 in 10.0 mi Calm Calm - N/A   Clear
6:53 AM 48.9 °F - 36.0 °F 61% 30.09 in 10.0 mi Calm Calm - N/A   Clear
7:53 AM 53.1 °F - 37.9 °F 57% 30.08 in 10.0 mi South 6.9 mph - N/A   Clear
8:53 AM 55.9 °F - 37.0 °F 49% 30.07 in 10.0 mi SSW 12.7 mph - N/A   Clear
9:53 AM 64.0 °F - 37.0 °F 37% 30.01 in 10.0 mi SSW 24.2 mph 29.9 mph N/A   Clear
10:53 AM 69.1 °F - 35.1 °F 29% 29.99 in 10.0 mi SSW 25.3 mph 33.4 mph N/A   Clear
11:53 AM 71.1 °F - 35.1 °F 27% 29.96 in 10.0 mi South 26.5 mph 34.5 mph N/A   Clear
12:53 PM 70.0 °F - 35.1 °F 28% 29.93 in 10.0 mi South 21.9 mph 29.9 mph N/A   Clear
1:53 PM 73.0 °F - 35.1 °F 25% 29.91 in 10.0 mi South 21.9 mph 32.2 mph N/A   Clear
2:53 PM 80.1 °F - 36.0 °F 20% 29.84 in 10.0 mi South 18.4 mph 28.8 mph N/A   Clear
3:53 PM 80.1 °F - 33.1 °F 18% 29.80 in 10.0 mi South 23.0 mph 40.3 mph N/A   Clear
4:53 PM 80.1 °F - 32.0 °F 17% 29.76 in 10.0 mi South 26.5 mph 31.1 mph N/A   Clear
5:53 PM 82.0 °F - 25.0 °F 12% 29.73 in 10.0 mi West 10.4 mph 23.0 mph N/A   Clear
6:53 PM 79.0 °F - 30.9 °F 17% 29.74 in 10.0 mi SSW 25.3 mph 33.4 mph N/A   Clear
7:53 PM 71.1 °F - 37.9 °F 30% 29.79 in 10.0 mi SSW 28.8 mph 39.1 mph N/A   Partly Cloudy
8:53 PM 66.9 °F - 39.9 °F 37% 29.81 in 10.0 mi South 20.7 mph 33.4 mph N/A   Clear
9:53 PM 64.9 °F - 39.9 °F 40% 29.81 in 10.0 mi South 17.3 mph - N/A   Clear
10:53 PM 63.0 °F - 42.1 °F 46% 29.79 in 10.0 mi SW 9.2 mph - N/A   Clear
11:53 PM 59.0 °F - 41.0 °F 51% 29.81 in 10.0 mi SW 3.5 mph - N/A   Clear